User: anonymous   Login
Location: Long Point Provincial Park
(42.5794°N, 80.4103°W)
Time: 08:18:16
(UTC-04:00)
Language:

Iridium 19 - Orbit

View from above orbital plane
View from above orbital plane
View from above satellite
View from above satellite

Ground track
Ground track

The orbit data is extracted from the following two-line orbital elements,

1 24965U 97056A   15086.52855723  .00000180  00000-0  57208-4 0  9995
2 24965 086.3932 298.3844 0002036 089.3949 270.7480 14.34221428916072
Epoch (UTC): 27 March 2015 12:41:07
Eccentricity: 0.0002036
inclination: 86.3932°
perigee height: 776 km
apogee height: 779 km
right ascension of ascending node: 298.3844°
argument of perigee: 89.3949°
revolutions per day: 14.34221428
mean anomaly at epoch: 270.7480°
orbit number at epoch: 91607

The dashed part of the orbit path shows where the satellite is in the earth's shadow,  

DLR